This demonstration page uses our WeatherBlox Daily Observations layout. Learn more.

Left ArrowRight Arrow

38.83388, -104.82136

Hourly Observations for January 7, 2015

Temp ( °F °C ) Dew Point ( °F °C ) Humidity (%) Winds ( mph kmh ) Pressure ( in mb ) Visibility ( mi km ) Precip ( " mm )
12:56 am 00:56 Clear 39 3.7 28 -2.5 64 64 NW 9 15 30.41 1030 10 16 N/A
1:56 am 01:56 Clear 41 5.2 28 -2.5 58 58 SSE 6 9 30.42 1030 10 16 N/A
2:42 am 02:42 Clear 34 1 28 -2 81 81 SE 12 19 30.50 1033 10 16 N/A
2:56 am 02:56 Clear 29 -1.9 26 -3.2 91 91 ESE 2 4 30.52 1033 10 16 N/A
3:11 am 03:11 Mostly Cloudy with Freezing Fog 27 -3 27 -3 100 100 SSE 9 15 30.62 1037 5 8 N/A
3:56 am 03:56 Mostly Cloudy with Freezing Fog 26 -3.4 26 -3.4 100 100 S 12 19 30.52 1034 1 2 N/A
4:43 am 04:43 Windy with Snow Showers Likely 23 -5 21 -6 93 93 SSE 20 31 30.71 1040 1 2 N/A
4:49 am 04:49 Mostly Cloudy with Light Freezing Rain 21 -6 19 -7 93 93 SSE 18 30 30.77 1042 1 2 N/A
4:56 am 04:56 Mostly Cloudy with Light Freezing Rain 20 -6.8 19 -7.2 97 97 undefined N/A 30.63 1037 1 2 N/A
5:07 am 05:07 Mostly Cloudy with Light Freezing Rain 19 -7 19 -7 100 100 S 67 107 30.80 1043 1 2 N/A
5:11 am 05:11 Mostly Cloudy with Light Freezing Rain 19 -7 18 -8 93 93 NE 83 133 30.80 1043 1 2 N/A
5:19 am 05:19 Mostly Cloudy with Light Freezing Rain 18 -8 18 -8 100 100 NNE 38 61 30.83 1044 1 2 N/A
5:51 am 05:51 Mostly Cloudy 18 -8 16 -9 93 93 undefined N/A 30.80 1043 1 2 N/A
5:56 am 05:56 Mostly Cloudy with Light Freezing Rain 17 -8.5 16 -9 96 96 undefined N/A 30.61 1037 1 2 N/A
6:02 am 06:02 Mostly Cloudy with Light Freezing Rain 18 -8 16 -9 93 93 SSW 119 191 30.83 1044 1 2 N/A
6:03 am 06:03 Mostly Cloudy with Light Freezing Rain 18 -8 16 -9 93 93 SE 116 187 30.83 1044 1 2 N/A
6:18 am 06:18 Mostly Cloudy with Light Freezing Rain 16 -9 16 -9 100 100 NE 152 244 30.86 1045 3 5 N/A
6:23 am 06:23 Mostly Cloudy 16 -9 16 -9 100 100 ENE 180 289 30.86 1045 3 5 N/A
6:27 am 06:27 Mostly Cloudy with Light Freezing Rain 16 -9 16 -9 100 100 W 94 152 30.86 1045 3 5 N/A
6:56 am 06:56 Mostly Cloudy with Light Freezing Rain 15 -9.2 14 -9.9 95 95 undefined N/A 30.70 1040 1 2 N/A
7:12 am 07:12 Mostly Cloudy 16 -9 14 -10 93 93 undefined N/A 30.92 1047 1 2 N/A
7:25 am 07:25 Mostly Cloudy with Light Freezing Rain 14 -10 14 -10 100 100 SSE 12 19 30.95 1048 1 2 N/A
7:32 am 07:32 Mostly Cloudy 14 -10 12 -11 92 92 S 13 20 30.95 1048 1 2 N/A
7:35 am 07:35 Mostly Cloudy with Light Freezing Rain 14 -10 12 -11 92 92 SSE 13 20 30.95 1048 1 2 N/A
7:40 am 07:40 Mostly Cloudy with Light Snow 14 -10 12 -11 92 92 SSE 13 20 30.95 1048 1 2 N/A
7:46 am 07:46 Mostly Cloudy with Light Snow 14 -10 12 -11 92 92 SSE 14 22 30.95 1048 1 2 N/A
7:56 am 07:56 Mostly Cloudy with Light Snow 14 -10.1 13 -10.8 95 95 SSE 15 24 30.73 1041 1 2 N/A
7:58 am 07:58 Mostly Cloudy 14 -10 12 -11 92 92 undefined N/A 30.95 1048 1 2 N/A
8:12 am 08:12 Mostly Cloudy with Light Snow 14 -10 12 -11 92 92 SSE 13 20 30.95 1048 1 2 N/A
8:56 am 08:56 Mostly Cloudy with Light Snow 13 -10.7 11 -11.4 95 95 SSE 13 20 30.79 1043 1 2 N/A
9:15 am 09:15 Mostly Cloudy 12 -11 10 -12 92 92 SSE 10 17 31.04 1051 1 2 N/A
9:16 am 09:16 Mostly Cloudy with Light Snow 12 -11 10 -12 92 92 SSE 10 17 31.04 1051 1 2 N/A
9:23 am 09:23 Mostly Cloudy with Light Snow 12 -11 10 -12 92 92 SSE 13 20 31.04 1051 0 0 N/A
9:56 am 09:56 Mostly Cloudy with Snow 12 -11.3 10 -12.1 94 94 SSE 13 20 30.81 1044 0 0 N/A
10:22 am 10:22 Mostly Cloudy 12 -11 10 -12 92 92 SSE 14 22 31.01 1050 1 1 N/A
10:23 am 10:23 Mostly Cloudy with Light Snow 12 -11 10 -12 92 92 SSE 13 20 31.01 1050 1 1 N/A
10:41 am 10:41 Mostly Cloudy with Heavy Snow 12 -11 10 -12 92 92 SSE 17 28 31.01 1050 1 2 N/A
10:56 am 10:56 Mostly Cloudy with Heavy Snow 12 -11.2 11 -11.9 95 95 SSE 14 22 30.76 1042 3 5 N/A
11:01 am 11:01 Mostly Cloudy with Snow 12 -11 10 -12 92 92 SSE 15 24 30.98 1049 0 0 N/A
11:50 am 11:50 Mostly Cloudy with Snow 12 -11 10 -12 92 92 SSE 15 24 30.98 1049 5 8 N/A
11:56 am 11:56 Mostly Cloudy with Snow 11 -11.4 10 -12.2 94 94 SSE 13 20 30.74 1041 5 8 N/A
12:05 pm 12:05 Mostly Cloudy 12 -11 10 -12 92 92 SSE 15 24 30.98 1049 1 1 N/A
12:12 pm 12:12 Mostly Cloudy with Snow 12 -11 10 -12 92 92 SSE 13 20 30.98 1049 1 1 N/A
12:41 pm 12:41 Mostly Cloudy with Snow 10 -12 10 -12 100 100 S 10 17 30.95 1048 5 8 N/A
12:43 pm 12:43 Mostly Cloudy with Snow 10 -12 10 -12 100 100 SSE 14 22 30.95 1048 5 8 N/A
12:56 pm 12:56 Cloudy with Snow 11 -11.5 10 -12.2 95 95 SSE 10 17 30.73 1041 1 1 N/A
1:56 pm 13:56 Mostly Cloudy 11 -11.6 10 -12.4 94 94 SSE 14 22 30.68 1039 5 8 N/A
1:57 pm 13:57 Mostly Cloudy with Snow 10 -12 10 -12 100 100 SSE 13 20 30.92 1047 5 8 N/A
2:52 pm 14:52 Mostly Cloudy 12 -11 10 -12 92 92 SSE 12 19 30.89 1046 1 2 N/A
2:53 pm 14:53 Mostly Cloudy with Light Snow 12 -11 10 -12 92 92 SSE 12 19 30.89 1046 1 2 N/A
2:56 pm 14:56 Mostly Cloudy with Light Snow 11 -11.4 10 -12.3 93 93 SSE 10 17 30.74 1041 1 2 N/A
3:03 pm 15:03 Mostly Cloudy 12 -11 10 -12 92 92 SSE 8 13 30.86 1045 1 2 N/A
3:04 pm 15:04 Mostly Cloudy with Light Snow 12 -11 10 -12 92 92 SSE 9 15 30.86 1045 7 11 N/A
3:56 pm 15:56 Mostly Cloudy with Heavy Snow 11 -11.4 10 -12.3 93 93 SSE 7 11 30.71 1040 3 5 N/A
4:09 pm 16:09 Mostly Cloudy with Snow 10 -12 10 -12 100 100 SSE 6 9 30.89 1046 3 5 N/A
4:51 pm 16:51 Mostly Cloudy with Snow 10 -12 9 -13 92 92 SSE 5 7 30.83 1044 1 1 N/A
4:56 pm 16:56 Mostly Cloudy with Light Snow 11 -11.7 9 -12.6 93 93 SE 5 7 30.72 1040 1 1 N/A
5:45 pm 17:45 Mostly Cloudy with Freezing Fog 10 -12 9 -13 92 92 ESE 1 2 30.83 1044 1 2 N/A
5:56 pm 17:56 Mostly Cloudy with Freezing Fog 10 -12 9 -12.9 93 93 Calm 30.70 1040 5 8 N/A
5:57 pm 17:57 Mostly Cloudy with Light Snow Showers 10 -12 9 -13 92 92 VRB 1 2 30.80 1043 3 5 N/A
6:10 pm 18:10 Mostly Cloudy with Freezing Fog 10 -12 9 -13 92 92 SE 1 2 30.80 1043 3 5 N/A
6:34 pm 18:34 Mostly Cloudy with Freezing Fog 10 -12 9 -13 92 92 Calm 30.80 1043 3 5 N/A
6:49 pm 18:49 Mostly Cloudy with Freezing Fog 10 -12 9 -13 92 92 NE 1 2 30.77 1042 3 5 N/A
6:56 pm 18:56 Mostly Cloudy with Freezing Fog 11 -11.9 9 -12.8 93 93 Calm 30.68 1039 2 2 N/A
7:11 pm 19:11 Mostly Cloudy with Freezing Fog 10 -12 9 -13 92 92 VRB 1 2 30.77 1042 3 5 N/A
7:15 pm 19:15 Mostly Cloudy with Light Snow Showers 10 -12 9 -13 92 92 Calm 30.77 1042 5 8 N/A
7:30 pm 19:30 Mostly Cloudy with Light Snow Showers 10 -12 9 -13 92 92 N 1 2 30.77 1042 3 4 N/A
7:35 pm 19:35 Mostly Cloudy with Mist and Fog 10 -12 9 -13 92 92 Calm 30.74 1041 3 4 N/A
7:56 pm 19:56 Mostly Cloudy 10 -12.4 8 -13.3 93 93 NNE 2 4 30.65 1038 7 11 N/A
8:21 pm 20:21 Partly Cloudy with Mist and Fog 10 -12 9 -13 92 92 VRB 2 4 30.74 1041 5 8 N/A
8:56 pm 20:56 Clear 9 -12.7 8 -13.5 94 94 VRB 2 4 30.61 1037 8 13 N/A
9:56 pm 21:56 Clear 22 -5.6 21 -6.3 95 95 W 2 4 30.50 1033 10 16 N/A
10:56 pm 22:56 Clear 32 0 32 0.2 100 100 VRB 2 4 30.42 1030 10 16 N/A
11:56 pm 23:56 Clear 40 4.4 23 -4.9 51 51 VRB 3 6 30.33 1027 10 16 N/A

Powered by AerisWeather